TimeEST,TemperatureF,Dew PointF,Humidity,Sea Level PressureIn,VisibilityMPH,Wind Direction,Wind SpeedMPH,Gust SpeedMPH,PrecipitationIn,Events,Conditions,WindDirDegrees,DateUTC
12:53 AM,10.0,-4.0,53,30.09,10.0,WSW,4.6,-,N/A,,Clear,250,2013-01-23 05:53:00
1:53 AM,9.0,-8.0,46,30.09,10.0,Variable,4.6,-,N/A,,Clear,0,2013-01-23 06:53:00
2:53 AM,9.0,-7.1,48,30.10,10.0,West,4.6,-,N/A,,Clear,260,2013-01-23 07:53:00
3:53 AM,9.0,-8.0,46,30.10,10.0,WSW,5.8,-,N/A,,Partly Cloudy,250,2013-01-23 08:53:00
4:53 AM,8.1,-9.9,44,30.12,10.0,West,5.8,-,N/A,,Clear,280,2013-01-23 09:53:00
5:53 AM,7.0,-16.1,34,30.14,10.0,WNW,11.5,-,N/A,,Clear,300,2013-01-23 10:53:00
6:53 AM,7.0,-14.1,38,30.14,10.0,Variable,4.6,-,N/A,,Clear,0,2013-01-23 11:53:00
7:53 AM,3.0,-7.1,63,30.17,10.0,NE,6.9,-,N/A,,Clear,40,2013-01-23 12:53:00
8:53 AM,5.0,-8.0,55,30.18,10.0,North,5.8,-,N/A,,Clear,350,2013-01-23 13:53:00
9:53 AM,8.1,-15.0,34,30.17,10.0,WNW,11.5,21.9,N/A,,Partly Cloudy,300,2013-01-23 14:53:00
10:53 AM,9.0,-17.0,30,30.16,10.0,NW,11.5,20.7,N/A,,Partly Cloudy,320,2013-01-23 15:53:00
11:53 AM,10.0,-16.1,30,30.14,10.0,NW,10.4,16.1,N/A,,Partly Cloudy,310,2013-01-23 16:53:00
12:53 PM,10.9,-18.0,26,30.11,10.0,NNW,16.1,24.2,N/A,,Partly Cloudy,330,2013-01-23 17:53:00
1:53 PM,10.9,-18.0,26,30.12,10.0,WNW,17.3,21.9,N/A,,Partly Cloudy,300,2013-01-23 18:53:00
2:53 PM,12.0,-18.0,25,30.12,10.0,NW,17.3,23.0,N/A,,Clear,310,2013-01-23 19:53:00
3:53 PM,10.9,-18.9,25,30.13,10.0,NW,12.7,20.7,N/A,,Clear,320,2013-01-23 20:53:00
4:53 PM,9.0,-17.0,30,30.14,10.0,NNW,8.1,-,N/A,,Clear,330,2013-01-23 21:53:00
5:53 PM,8.1,-18.0,30,30.16,10.0,NW,8.1,-,N/A,,Clear,320,2013-01-23 22:53:00
6:53 PM,7.0,-16.1,34,30.17,10.0,NW,6.9,-,N/A,,Clear,320,2013-01-23 23:53:00
7:53 PM,6.1,-15.0,38,30.17,10.0,West,4.6,-,N/A,,Clear,270,2013-01-24 00:53:00
8:53 PM,5.0,-14.1,41,30.17,10.0,NNW,3.5,-,N/A,,Clear,340,2013-01-24 01:53:00
9:53 PM,3.2,-14.8,43,30.10,10.0,Calm,Calm,-,N/A,,Clear,0,2013-01-24 02:53:00
10:53 PM,3.0,-14.1,45,30.17,10.0,NNW,4.6,-,N/A,,Clear,340,2013-01-24 03:53:00
11:53 PM,1.9,-13.0,50,30.17,10.0,NNW,4.6,-,N/A,,Clear,330,2013-01-24 04:53:00